User: anonymous   Login
Location: Unspecified
(0.0000°N, 0.0000°E)
Time: 22:24:31
(UTC+00:00)
Language:

TBA - TO BE ASSIGNED - Orbit

View from above orbital plane
View from above orbital plane
View from above satellite
View from above satellite

Ground track
Ground track

The orbit is defined by the following mean orbital elements,

1 67842U          26145.44252323 +.00000000 +00000-0 +49507-3 0 00001
2 67842  43.0017 193.4802 0001273 271.3840  88.6866 15.27591197    08
Epoch (UTC): 25 May 2026 10:37:14
Eccentricity: 0.0001273
inclination: 43.0017°
perigee height: 482 km
apogee height: 484 km
right ascension of ascending node: 193.4802°
argument of perigee: 271.3840°
revolutions per day: 15.27591197
mean anomaly at epoch: 88.6866°

The dashed part of the orbit path shows where the satellite is in the earth's shadow,  

DLR